Overview Statistics Trail Chart Weather Telemetry Raw packets
 

This is the latest recevied weather packets stored in our database for station/object K8DJB-1. If no packets are shown the sender has not sent any weather packets the latest 10 day(s).

<< 1 2 3 4 5 6 7 >>
Time Temp. Humidity Pressure Rain* Wind** Luminosity Snow
1788553813 25° C 76% 1013.1 hPa 0 mm - 1707 W/m² -
1788553512 25.56° C 76% 1013.1 hPa 0 mm - 1707 W/m² -
1788553214 25° C 76% 1013.1 hPa 0 mm - 1707 W/m² -
1788552913 25° C 78% 1013.2 hPa 0 mm - 1707 W/m² -
1788552613 25° C 78% 1013.2 hPa 0 mm - 1707 W/m² -
1788552314 25° C 78% 1013.3 hPa 0 mm - 1709 W/m² -
1788552013 25° C 79% 1013.2 hPa 0 mm - 1709 W/m² -
1788551713 24.44° C 80% 1013.3 hPa 0 mm - 1710 W/m² -
1788551112 24.44° C 80% 1013 hPa 0 mm - 1714 W/m² -
1788550713 24.44° C 83% 1013 hPa 0 mm - 1714 W/m² -
1788550113 24.44° C 82% 1013.2 hPa 0 mm - 1716 W/m² -
1788549543 23.89° C 83% 1013.5 hPa 0 mm - 1717 W/m² -
1788549213 23.89° C 82% 1013.5 hPa 0 mm - 1717 W/m² -
1788548613 23.33° C 82% 1013.6 hPa 0 mm - 1719 W/m² -
1788548354 23.33° C 84% 1013.6 hPa 0 mm - 1719 W/m² -
1788548313 23.33° C 84% 1013.6 hPa 0 mm - 1719 W/m² -
1788547756 23.33° C 87% 1013.2 hPa 0 mm - 1721 W/m² -
1788547716 23.33° C 87% 1013.2 hPa 0 mm - 1721 W/m² -
1788547413 23.33° C 87% 1013.6 hPa 0 mm - 1721 W/m² -
1788546870 23.33° C 87% 1014.2 hPa 0 mm - 1723 W/m² -
1788546813 23.33° C 87% 1014.2 hPa 0 mm - 1723 W/m² -
1788546020 22.78° C 88% 1013.7 hPa 0 mm - 1723 W/m² -
1788545913 22.78° C 88% 1013.7 hPa 0 mm - 1723 W/m² -
1788545313 22.78° C 88% 1013.7 hPa 0 mm - 1723 W/m² -
1788544713 22.78° C 89% 1013.4 hPa 0 mm - 1723 W/m² -

* Rain latest hour (hover to see other rain measurements)
** Current wind speed in m/s (hover to see current wind gust speed)